Location: Arran
(51.9410°N, 101.7372°W)
Time: 13:20:05
(UTC+00:00)

Envisat - Visible Passes

Search period start: 01 December 2022 00:00
Search period end: 11 December 2022 00:00
Orbit: 763 x 765 km, 98.2° (Epoch: 30 November)

Date Brightness Start Highest point End Pass type
(mag) Time Alt. Az. Time Alt. Az. Time Alt. Az.
01 Dec 4.6 10:36:13 10° NNE 10:39:07 30° NE 10:39:07 30° NE visible
01 Dec 3.7 12:15:25 10° N 12:19:17 33° NW 12:19:17 33° NW visible
01 Dec 5.9 23:38:05 10° WSW 23:40:55 15° W 23:43:45 10° NW visible
02 Dec 5.5 09:59:48 10° NE 10:01:30 17° NE 10:01:30 17° NE visible
02 Dec 3.6 11:38:08 10° N 11:41:40 43° N 11:41:40 43° N visible
02 Dec 4.6 13:18:50 10° NNW 13:21:17 14° NW 13:21:51 13° WNW visible
03 Dec 4.2 11:01:07 10° NNE 11:04:05 35° NNE 11:04:05 35° NNE visible
03 Dec 4.1 12:40:49 10° N 12:44:15 23° NW 12:44:15 23° NW visible
04 Dec 5.1 10:24:22 10° NNE 10:26:29 22° NE 10:26:29 22° NE visible
04 Dec 3.8 12:03:21 10° N 12:06:39 33° NNW 12:06:39 33° NNW visible
04 Dec 5.7 23:25:19 10° SW 23:28:47 18° W 23:32:17 10° NW visible
05 Dec 5.8 09:48:12 10° NE 09:48:54 12° NE 09:48:54 12° NE visible
05 Dec 4.0 11:26:09 10° NNE 11:29:04 35° N 11:29:04 35° N visible
05 Dec 4.5 13:06:28 10° NNW 13:09:14 16° NW 13:09:14 16° NW visible
06 Dec 4.7 10:49:12 10° NNE 10:51:29 26° NNE 10:51:29 26° NNE visible
06 Dec 4.1 12:28:41 10° N 12:31:39 25° NW 12:31:39 25° NW visible
06 Dec 6.1 23:52:41 10° W 23:54:13 11° W 23:55:45 10° WNW visible
07 Dec 5.5 10:12:35 10° NE 10:13:55 16° NE 10:13:55 16° NE visible
07 Dec 4.0 11:51:18 10° N 11:54:06 31° N 11:54:06 31° N visible
07 Dec 4.8 13:32:47 10° NNW 13:34:07 11° NW 13:34:16 11° NW visible
07 Dec 5.6 23:12:44 10° SW 23:16:41 22° W 23:20:40 10° NW visible
08 Dec 4.5 11:14:10 10° NNE 11:16:31 28° NNE 11:16:31 28° NNE visible
08 Dec 4.4 12:54:11 10° N 12:56:42 18° NW 12:56:42 18° NW visible
09 Dec 5.1 10:37:19 10° NNE 10:38:58 20° NE 10:38:58 20° NE visible
09 Dec 4.2 12:16:34 10° N 12:19:09 25° NNW 12:19:09 25° NNW visible
09 Dec 5.9 23:39:23 10° WSW 23:42:04 14° W 23:44:45 10° NW visible
10 Dec 5.8 10:00:53 10° NE 10:01:25 12° NE 10:01:25 12° NE visible
10 Dec 4.3 11:39:16 10° N 11:41:35 27° N 11:41:35 27° N visible
10 Dec 4.7 13:20:03 10° NNW 13:21:46 13° NW 13:21:46 13° NW visible
